Location: Azul
(36.7830°S, 59.8500°W)
Time: 01:21:25
(UTC-03:00)

DELFI C3 - Pass Details

Date: 24 October 2021
Orbit: 529 x 543 km, 97.4° (Epoch: 30 November)

Event Time Altitude Azimuth Distance (km) Brightness Sun altitude
Rises 19:50:31 0° 146° (SE) 2,733 ? -5.8°
Reaches altitude 10° 19:53:38 10° 119° (ESE) 1,825 ? -6.3°
Maximum altitude 19:55:39 14° 88° (E) 1,598 ? -6.7°
Drops below altitude 10° 19:57:38 10° 57° (ENE) 1,805 ? -7.1°
Enters shadow 19:58:35 - 46° (NE) 2,028 ? -7.3°
